Weather History for Lawrence, MA

Change the Weather History Date:

Monday, October 8, 2012

  Actual Average Record
Temperature  
Mean Temperature 50 °F -  
Max Temperature 57 °F 65 °F 86 °F (1990)
Min Temperature 43 °F 40 °F 28 °F (1999)
Degree Days  
Heating Degree Days 15    
Moisture  
Dew Point 43 °F    
Average Humidity 78    
Maximum Humidity 96    
Minimum Humidity 57    
Precipitation  
Precipitation 0.05 in - - ()
Sea Level Pressure  
Sea Level Pressure 30.21 in    
Wind  
Wind Speed 3 mph (WNW)    
Max Wind Speed 8 mph    
Max Gust Speed -    
Visibility 10 miles    
Events Rain    
Averages and records for this station are not official NWS values.
T = Trace of Precipitation, MM = Missing Value Source: NWS Daily Summary

Daily Weather History Graph

Daily Weather History Graph

Search for Another Location

Airport:

Trip Planner

Search our weather history database for the weather conditions in past years. The results will help you decide how hot, cold, wet, or windy it might be!

Date:

Astronomy

Oct. 08, 2012 Rise Set
Actual Time 6:50 AM EDT 6:12 PM EDT
Civil Twilight 6:21 AM EDT 6:41 PM EDT
Nautical Twilight 5:49 AM EDT 7:13 PM EDT
Astronomical Twilight 5:16 AM EDT 7:46 PM EDT
Moon No Moon Rise 2:08 PM EDT (10/8)
Length of Visible Light 12h 19m
Length of Day
11h 22m
Waning Gibbous, 46% of the Moon is Illuminated
Oct 8
Waning Gibbous
Oct 15
New
Oct 21
First Quarter
Oct 29
Full
Nov 6
Last Quarter

Hourly Weather History & Observations

Time (EDT) Temp. Dew Point Humidity Pressure Visibility Wind Dir Wind Speed Gust Speed Precip Events Conditions
12:22 AM 48.2 °F 46.4 °F 93% 30.07 in 8.0 mi Calm Calm - 0.05 in Rain Light Rain
12:47 AM 48.2 °F 46.4 °F 93% 30.07 in 10.0 mi West 5.8 mph - 0.05 in   Overcast
12:54 AM 48.9 °F 46.0 °F 90% 30.09 in 10.0 mi West 6.9 mph - 0.05 in   Overcast
1:04 AM 48.2 °F 44.6 °F 87% 30.09 in 10.0 mi West 8.1 mph - N/A   Overcast
1:11 AM 48.2 °F 44.6 °F 87% 30.10 in 10.0 mi WNW 8.1 mph - N/A   Overcast
1:27 AM 48.2 °F 46.4 °F 93% 30.10 in 10.0 mi West 5.8 mph - N/A   Overcast
1:42 AM 48.2 °F 44.6 °F 87% 30.10 in 10.0 mi West 5.8 mph - 0.00 in   Overcast
1:54 AM 48.9 °F 45.0 °F 86% 30.10 in 10.0 mi West 5.8 mph - 0.00 in   Mostly Cloudy
2:54 AM 46.9 °F 43.0 °F 86% 30.10 in 10.0 mi Calm Calm - N/A   Scattered Clouds
3:54 AM 45.0 °F 42.1 °F 90% 30.10 in 10.0 mi Calm Calm - N/A   Clear
4:54 AM 44.1 °F 39.9 °F 85% 30.12 in 3.0 mi Calm Calm - N/A   Clear
5:54 AM 43.0 °F 41.0 °F 93% 30.15 in 10.0 mi Calm Calm - N/A   Clear
6:54 AM 43.0 °F 39.9 °F 89% 30.17 in 10.0 mi Calm Calm - N/A   Clear
7:54 AM 44.1 °F 43.0 °F 96% 30.19 in 7.0 mi Calm Calm - N/A   Clear
8:52 AM 48.2 °F 44.6 °F 87% 30.22 in 10.0 mi West 4.6 mph - N/A   Partly Cloudy
8:54 AM 48.9 °F 44.1 °F 83% 30.23 in 10.0 mi WSW 4.6 mph - N/A   Partly Cloudy
9:54 AM 51.1 °F 44.1 °F 77% 30.24 in 10.0 mi WNW 5.8 mph - N/A   Scattered Clouds
10:52 AM 53.6 °F 41.0 °F 62% 30.25 in 10.0 mi North 5.8 mph - N/A   Mostly Cloudy
10:54 AM 53.1 °F 42.1 °F 66% 30.25 in 10.0 mi NW 4.6 mph - N/A   Mostly Cloudy
11:54 AM 54.0 °F 41.0 °F 62% 30.26 in 10.0 mi WNW 5.8 mph - N/A   Mostly Cloudy
12:01 PM 55.4 °F 41.0 °F 58% 30.26 in 10.0 mi NW 6.9 mph - N/A   Scattered Clouds
12:54 PM 54.0 °F 39.9 °F 59% 30.26 in 10.0 mi West 3.5 mph - N/A   Overcast
1:54 PM 54.0 °F 41.0 °F 62% 30.26 in 10.0 mi NW 4.6 mph - N/A   Overcast
2:54 PM 55.9 °F 41.0 °F 57% 30.28 in 10.0 mi Calm Calm - N/A   Overcast
3:54 PM 57.0 °F 42.1 °F 57% 30.28 in 10.0 mi Calm Calm - N/A   Overcast
4:54 PM 55.0 °F 39.9 °F 57% 30.28 in 10.0 mi North 3.5 mph - N/A   Partly Cloudy
5:54 PM 55.0 °F 41.0 °F 59% 30.29 in 10.0 mi East 3.5 mph - N/A   Clear
6:54 PM 51.1 °F 43.0 °F 74% 30.32 in 10.0 mi ESE 3.5 mph - N/A   Clear
7:54 PM 51.1 °F 44.1 °F 77% 30.32 in 10.0 mi ESE 4.6 mph - N/A   Clear
8:54 PM 51.1 °F 43.0 °F 74% 30.32 in 10.0 mi Calm Calm - N/A   Clear
9:54 PM 50.0 °F 44.1 °F 80% 30.33 in 10.0 mi Calm Calm - N/A   Clear
10:54 PM 48.9 °F 44.1 °F 83% 30.34 in 10.0 mi Calm Calm - N/A   Clear
11:54 PM 48.0 °F 44.1 °F 86% 30.34 in 10.0 mi NNE 3.5 mph - N/A   Overcast